Regional Weather Roundup
Issued by NWS Kansas City/Pleasant Hill, MO

Home | Current Version | Previous Version | Graphics & Text | Print | Product List | Glossary Off
Versions: 1 2 3 4 5 6 7 8 9 10 11 12 13 14 15 16 17 18 19 20 21 22 23 24 25 26 27 28 29 30 31 32 33 34 35 36 37 38 39 40 41 42 43 44 45 46 47 48 49 50

000
ASUS43 KEAX 040410
RWREAX

WEATHER ROUNDUP FOR EASTERN KANSAS AND NORTHWEST MISSOURI
NATIONAL WEATHER SERVICE KANSAS CITY/PLEASANT HILL MO
1100 PM CDT MON AUG 03 2015

KSZ040-057-103>105-MOZ028-029-037-043-040500-
...KANSAS CITY METROPOLITAN AREA...

CITY           SKY/WX    TMP DP  RH WIND       PRES   REMARKS
K.C. INTL      PTCLDY    76  68  76 E7        29.95R
K.C. DOWNTOWN  PTCLDY    78  70  76 E6        29.93R
LEES SUMMIT    PTCLDY    77  69  76 E9        29.95R
OLATHE - IXD   PTCLDY    80  73  79 E9        29.95R
OLATHE - OJC   PTCLDY    78  71  79 E6        29.94R
LAWRENCE       PTCLDY    77  69  76 E3        29.93R

$$

MOZ001>008-011>017-020>025-030>033-038>040-044>046-053-054-040500-
...NORTHERN AND CENTRAL MISSOURI...

CITY           SKY/WX    TMP DP  RH WIND       PRES   REMARKS
ST. JOSEPH     PTCLDY    75  68  78 E5        29.95R
WARRENSBURG    MOCLDY    75  70  83 CALM      29.94R
WHITEMAN AFB   MOCLDY    77  71  81 E5        29.93R
CLINTON        NOT AVBL
SEDALIA        PTCLDY    78  71  79 E5        29.96R
WARSAW         NOT AVBL
CHILLICOTHE      N/A     74  70  87 CALM      29.97R
KIRKSVILLE     PTCLDY    69  65  86 CALM      29.98R

$$

MOZ041-047>049-056>058-063>065-088>090-097-040500-
...EASTERN AND SOUTHERN MISSOURI...

CITY           SKY/WX    TMP DP  RH WIND       PRES   REMARKS
ST. LOUIS INTL MOCLDY    82  68  62 NE5       29.95R
SPIRIT OF STL  CLEAR     75  72  90 CALM      29.93R
COLUMBIA       PTCLDY    77  70  79 NE6       29.96R
JEFFERSON CITY PTCLDY    76  71  85 CALM      29.93R
ROLLA          CLEAR     73  69  87 SE3       29.96R
OSAGE BEACH    CLEAR     75  72  88 CALM      29.96R
SPRINGFIELD    PTCLDY    76  67  73 SW6       29.97S
BRANSON        CLEAR     77  68  73 CALM      30.00S
JOPLIN         MOCLDY    76  67  73 S3        29.96R
WEST PLAINS    CLEAR     75  70  84 CALM      30.00R

$$

IAZ060-094-KSZ022-034>040-054-083-096-NEZ052-066-093-040500-
...KANSAS...SOUTHEAST NEBRASKA AND IOWA...

CITY           SKY/WX    TMP DP  RH WIND       PRES   REMARKS
TOPEKA         PTCLDY    78  71  79 E6        29.93R
MANHATTAN      MOCLDY    79  73  82 CALM      29.91R
EMPORIA        MOCLDY    77  68  73 S8        29.93R
CHANUTE        PTCLDY    74  68  81 S7        29.95R
WICHITA        PTCLDY    80  69  69 S9        29.94R
OMAHA          CLOUDY    74  65  73 E6        29.97R
LINCOLN        MOCLDY    73  63  70 E5        29.98R
FALLS CITY     PTCLDY    72  70  93 E3        29.94S
LAMONI         MOCLDY    71  66  84 N5        29.98S
DES MOINES     PTCLDY    73  57  57 N3        29.96S

$$




USA.gov is the U.S. government's official web portal to all federal, state and local government web resources and services.